Create Custom Reports and Graphics: Custom Report

Sesame - 9,014ft

Current Conditions

7/14/24 4:00 PM (-07:00)
Updated Every 15 Minutes
Temp 68.6 °F   1.8
Daily Min Temp 49.5 °F   9.2
Daily Max Temp 70.2 °F   3.6
RH 37 %   8
Dew Pt 41.0 °F   4.9
Wet Bulb 53.2 °F   0.9
Barometric Press 29.82 inHg   0.04
Wind Dir WSW | 248 °
Wind Spd 2.7 mph   1.3
Wind Gust 10.5 mph   7.2
Daily Max Wind 25.0 mph   7.4
Yest MinT 51.1 °F
Yest MaxT 73.8 °F
Yest MaxGst 36.7 mph

Sesame Snow Study Site

Precip/Snow Report

7/14/24 4:00 PM (-07:00)
Updated Every 15 Minutes
New Snow 74.5 in
M WE6AM 0.03 In
P WE6AM 0.04 In
Month Precip M 0.06 In
Month Precip P 0.12 In
SnowDepth 224.6 in
Season Precip M 44.07 In
Season Precip P 41.78 In
Pillow SWE 0.00 In
BucketRT 8.75 In

Last 24 Hours

Sesame - 9,014ft

15 Minute Data | America/Los_Angeles
as of 7/14/24 4:09 PM PDT
Date & Time New Snow (in) M WE6AM (In) P WE6AM (In) Month Precip M (In) Month Precip P (In) SnowDepth (in) Season Precip M (In) Season Precip P (In) Pillow SWE (In)
7/14/24 - 1600 74.5 0.03 0.04 0.06 0.12 224.6 44.07 41.78 0.00
7/14/24 - 1545 76.4 0.03 0.04 0.06 0.12 192.7 44.07 41.78 0.00
7/14/24 - 1530 77.1 0.03 0.04 0.06 0.12 189.9 44.07 41.78 0.00
7/14/24 - 1515 78.1 0.03 0.04 0.06 0.12 154.9 44.07 41.78 0.00
7/14/24 - 1500 78.3 0.03 0.04 0.06 0.12 161.7 44.07 41.78 0.00
7/14/24 - 1445 77.8 0.03 0.04 0.06 0.12 161.8 44.07 41.78 0.00
7/14/24 - 1430 77.8 0.03 0.04 0.06 0.12 166.8 44.07 41.78 0.00
7/14/24 - 1415 78.0 0.03 0.04 0.06 0.12 155.6 44.07 41.78 0.00
7/14/24 - 1400 77.2 0.03 0.04 0.06 0.12 153.4 44.07 41.78 0.00
7/14/24 - 1345 77.9 0.03 0.04 0.06 0.12 153.8 44.07 41.78 0.00
7/14/24 - 1330 76.2 0.03 0.04 0.06 0.12 149.0 44.07 41.78 0.00
7/14/24 - 1315 78.8 0.03 0.04 0.06 0.12 146.4 44.07 41.78 0.00
7/14/24 - 1300 79.4 0.03 0.04 0.06 0.12 142.9 44.07 41.78 0.00
7/14/24 - 1245 79.5 0.03 0.04 0.06 0.12 131.1 44.07 41.78 0.00
7/14/24 - 1230 81.4 0.03 0.04 0.06 0.12 124.5 44.07 41.78 0.00
7/14/24 - 1215 79.6 0.03 0.04 0.06 0.12 127.7 44.07 41.78 0.00
7/14/24 - 1200 74.8 0.03 0.04 0.06 0.12 134.8 44.07 41.78 0.00
7/14/24 - 1145 74.2 0.03 0.04 0.06 0.12 99.7 44.07 41.78 0.00
7/14/24 - 1130 50.1 0.03 0.04 0.06 0.12 108.3 44.07 41.78 0.00
7/14/24 - 1115 5.2 0.03 0.04 0.06 0.12 100.0 44.07 41.78 0.00
7/14/24 - 1100 0.0 0.03 0.04 0.06 0.12 89.1 44.07 41.78 0.00
7/14/24 - 1045 0.0 0.03 0.04 0.06 0.12 102.5 44.07 41.78 0.00
7/14/24 - 1030 0.0 0.03 0.04 0.06 0.12 126.7 44.07 41.78 0.00
7/14/24 - 1015 0.0 0.03 0.04 0.06 0.12 187.3 44.07 41.78 0.00
7/14/24 - 1000 0.0 0.03 0.03 0.06 0.12 204.7 44.07 41.78 0.00
7/14/24 - 0945 0.0 0.01 0.00 0.04 0.09 173.4 44.05 41.75 0.00
7/14/24 - 0930 0.0 0.00 0.00 0.03 0.09 180.0 44.04 41.75 0.00
7/14/24 - 0915 0.0 0.00 0.00 0.03 0.09 184.7 44.04 41.74 0.00
7/14/24 - 0900 0.0 0.00 0.00 0.03 0.09 186.8 44.04 41.74 0.00
7/14/24 - 0845 0.0 0.00 0.00 0.03 0.09 182.3 44.04 41.74 0.00
7/14/24 - 0830 0.0 0.00 0.00 0.03 0.09 184.7 44.04 41.74 0.00
7/14/24 - 0815 0.0 0.00 0.00 0.03 0.09 195.6 44.04 41.74 0.00
7/14/24 - 0800 0.0 0.00 0.00 0.03 0.09 194.2 44.04 41.74 0.00
7/14/24 - 0745 0.0 0.00 0.00 0.03 0.09 197.4 44.04 41.74 0.00
7/14/24 - 0730 0.0 0.00 0.00 0.03 0.09 194.8 44.04 41.74 0.00
7/14/24 - 0715 0.0 0.00 0.00 0.03 0.09 189.9 44.04 41.74 0.00
7/14/24 - 0700 0.0 0.03 0.08 0.03 0.09 184.2 44.04 41.74 0.00
7/14/24 - 0645 0.0 0.03 0.08 0.03 0.09 177.9 44.04 41.74 0.00
7/14/24 - 0630 0.0 0.03 0.08 0.03 0.09 178.6 44.04 41.74 0.00
7/14/24 - 0615 0.0 0.03 0.08 0.03 0.09 181.5 44.04 41.74 0.00
7/14/24 - 0600 0.0 0.03 0.08 0.03 0.09 184.1 44.04 41.74 0.00
7/14/24 - 0545 0.0 0.03 0.08 0.03 0.09 179.6 44.04 41.74 0.00
7/14/24 - 0530 0.0 0.03 0.08 0.03 0.08 173.2 44.04 41.74 0.00
7/14/24 - 0515 0.0 0.03 0.08 0.03 0.08 166.5 44.04 41.74 0.00
7/14/24 - 0500 0.0 0.03 0.08 0.03 0.08 161.2 44.04 41.74 0.00
7/14/24 - 0445 0.0 0.03 0.08 0.03 0.08 159.8 44.04 41.74 0.00
7/14/24 - 0430 0.0 0.03 0.07 0.03 0.08 157.6 44.04 41.74 0.00
7/14/24 - 0415 0.0 0.03 0.07 0.03 0.08 156.3 44.04 41.74 0.00
7/14/24 - 0400 0.0 0.03 0.07 0.03 0.08 155.5 44.04 41.74 0.00
7/14/24 - 0345 0.0 0.03 0.07 0.03 0.08 152.7 44.04 41.74 0.00
7/14/24 - 0330 0.0 0.03 0.07 0.03 0.08 149.9 44.04 41.73 0.00
7/14/24 - 0315 0.0 0.03 0.07 0.03 0.08 143.0 44.04 41.73 0.00
7/14/24 - 0300 0.0 0.03 0.07 0.03 0.08 131.5 44.04 41.73 0.00
7/14/24 - 0245 0.0 0.03 0.07 0.03 0.08 118.4 44.04 41.73 0.00
7/14/24 - 0230 0.0 0.03 0.07 0.03 0.08 107.6 44.04 41.73 0.00
7/14/24 - 0215 0.0 0.03 0.06 0.03 0.07 101.9 44.04 41.73 0.00
7/14/24 - 0200 0.0 0.03 0.06 0.03 0.07 95.3 44.04 41.73 0.00
7/14/24 - 0145 0.0 0.03 0.06 0.03 0.07 91.7 44.04 41.73 0.00
7/14/24 - 0130 0.0 0.03 0.06 0.03 0.07 85.7 44.04 41.73 0.00
7/14/24 - 0115 0.0 0.03 0.06 0.03 0.07 80.5 44.04 41.73 0.00
7/14/24 - 0100 0.0 0.03 0.06 0.03 0.07 79.0 44.04 41.73 0.00
7/14/24 - 0045 0.0 0.03 0.06 0.03 0.07 78.3 44.04 41.73 0.00
7/14/24 - 0030 0.0 0.03 0.06 0.03 0.06 80.5 44.04 41.72 0.00
7/14/24 - 0015 0.0 0.03 0.06 0.03 0.06 76.4 44.04 41.72 0.00
7/14/24 - 0000 0.0 0.03 0.06 0.03 0.06 72.3 44.04 41.72 0.00
7/13/24 - 2345 0.0 0.03 0.06 0.03 0.06 74.9 44.04 41.72 0.00
7/13/24 - 2330 0.0 0.03 0.05 0.03 0.06 78.6 44.04 41.72 0.00
7/13/24 - 2315 0.0 0.03 0.05 0.03 0.06 86.2 44.04 41.72 0.00
7/13/24 - 2300 0.0 0.03 0.05 0.03 0.06 117.9 44.04 41.72 0.00
7/13/24 - 2245 0.0 0.03 0.05 0.03 0.06 156.6 44.04 41.72 0.00
7/13/24 - 2230 0.0 0.03 0.05 0.03 0.06 183.1 44.04 41.72 0.00
7/13/24 - 2215 0.0 0.03 0.05 0.03 0.06 200.4 44.04 41.72 0.00
7/13/24 - 2200 0.0 0.03 0.04 0.03 0.05 209.0 44.04 41.71 0.00
7/13/24 - 2145 0.0 0.03 0.04 0.03 0.05 221.4 44.04 41.71 0.00
7/13/24 - 2130 0.0 0.03 0.04 0.03 0.05 - 44.04 41.71 0.00
7/13/24 - 2115 0.0 0.03 0.04 0.03 0.05 - 44.04 41.71 0.00
7/13/24 - 2100 0.0 0.03 0.04 0.03 0.05 - 44.04 41.71 0.00
7/13/24 - 2045 0.0 0.03 0.04 0.03 0.05 - 44.04 41.70 0.00
7/13/24 - 2030 0.0 0.03 0.03 0.03 0.04 - 44.04 41.70 0.00
7/13/24 - 2015 0.0 0.02 0.02 0.02 0.03 - 44.03 41.69 0.00
7/13/24 - 2000 0.0 0.02 0.02 0.02 0.03 - 44.03 41.69 0.00
7/13/24 - 1945 0.0 0.02 0.02 0.02 0.03 - 44.03 41.69 0.00
7/13/24 - 1930 0.0 0.02 0.02 0.02 0.03 - 44.03 41.69 0.00
7/13/24 - 1915 0.0 0.02 0.02 0.02 0.03 - 44.03 41.69 0.00
7/13/24 - 1900 0.0 0.02 0.02 0.02 0.03 - 44.03 41.69 0.00
7/13/24 - 1845 0.0 0.02 0.02 0.02 0.03 - 44.03 41.69 0.00
7/13/24 - 1830 0.0 0.02 0.02 0.02 0.03 - 44.03 41.69 0.00
7/13/24 - 1815 0.0 0.02 0.02 0.02 0.03 - 44.03 41.69 0.00
7/13/24 - 1800 0.0 0.02 0.02 0.02 0.03 - 44.03 41.69 0.00
7/13/24 - 1745 0.0 0.02 0.02 0.02 0.03 - 44.03 41.68 0.00
7/13/24 - 1730 68.1 0.00 0.00 0.00 0.01 - 44.01 41.67 0.00
7/13/24 - 1715 76.5 0.00 0.00 0.00 0.01 - 44.01 41.67 0.00
7/13/24 - 1700 74.9 0.00 0.00 0.00 0.01 - 44.01 41.67 0.00
7/13/24 - 1645 75.5 0.00 0.00 0.00 0.01 - 44.01 41.67 0.00
7/13/24 - 1630 73.9 0.00 0.00 0.00 0.01 - 44.01 41.67 0.00
7/13/24 - 1615 75.4 0.00 0.00 0.00 0.01 - 44.01 41.67 0.00
7/13/24 - 1600 75.6 0.00 0.00 0.00 0.01 - 44.01 41.67 0.00
Max 81.4 0.03 0.08 0.06 0.12 224.6 44.07 41.78 0.00
Min 0.0 0.00 0.00 0.00 0.01 72.3 44.01 41.67 0.00